Weather in Mykolaivka

Ukraine / Dnipropetrovsk Region     48°23′08″N   36°19′01″E
temp.,
°C
wind,
m/s
gust,
m/s
humid.,
%
clouds,
%
prec.,
mm/h
press.,
hPa
HPBL,
m
14 may, fri
fri1400:00+13ese468578 0.0 101275
03:00+13e3790100 0.0 1011116
06:00+13e3109211 0.3 1010248
09:00+18se5774100 0.3 1010417
12:00+23sse6757100 0.0 1010987
15:00+25s464895 0.0 10101447
18:00+24sw465686 0.0 1009290
21:00+17sw336633 0.0 101039
15 may, sat
sat1500:00+15sw237523 0.0 101123
03:00+14wsw3482100 0.0 101256
06:00+13wsw23820 0.0 101369
09:00+19sw34594 0.0 1013477
12:00+23sw454598 0.0 10141704
15:00+24ssw45435 0.0 10132198
18:00+23sw335135 0.0 1013664
21:00+19nnw115615 0.0 101311
16 may, sun
sun1600:00+16e2263100 0.0 101311
03:00+15ne226825 0.0 101311
06:00+15ene237685 0.0 101349
09:00+21ene465999 0.0 1012535
12:00+25ene5654100 0.0 10111226
15:00+26ne5647100 0.0 10101929
18:00+24ne5965100 0.0 1008342
21:00+20ne4881100 0.1 1008172
17 may, mon
mon1700:00+18ene4877100 0.0 1007138
03:00+16ene358121 0.0 100671
06:00+16ese4884100 0.0 1005182
09:00+19ese476690 0.0 1005366
12:00+25se6748100 0.0 1005943
15:00+27s7948100 0.0 10051658
18:00+25sse585731 0.0 1005704
21:00+19sse348278 0.0 100663
18 may, tue
tue1800:00+17sw369495 0.6 1007131
03:00+16w389791 0.6 1008199
06:00+16w249522 0.0 1009159
09:00+20wsw33725 0.0 1010596
12:00+24sw45564 1.1 10101464
15:00+25sw564842 2.4 10102311
18:00+23sw465713 0.0 1010603
21:00+19s497275 0.0 1011197